Terug naar catalogus

DELTA 1 DEB

ActiefSSO
NORAD 6214·DEBRIS·🇺🇸 United States

Gelanceerd Feb 28, 1966 vanaf Cape Canaveral Space Force Station

Loading…

Volgende Passages (komende 24 uur)

TLE

VersSource: Space-Track

Epoch: Sep 14, 2026, 12:18 UTC

1 06214U 66016E   26257.51264740  .00000027  00000-0  39826-3 0  9993
2 06214 101.7677 257.8844 0119540 347.9228 163.6333 12.62822168786191

Volg DELTA 1 DEB in realtime met AllMySat

Download on the App Store